Theta_e
312 313 312 312 311 311 310 310 311 311 311 311 311 311 312 311 310 311 311 310 311 311 308 315 314 313 314 316 318 320 323 326 326 327 328 329 332 331 330 330 329 329 330 329 328
309 309 311 312 311 312 311 311 310 310 310 311 311 311 310 310 310 310 310 312 310 312 311 313 317 316 316 316 318 320 322 323 325 326 326 326 326 328 329 330 329 328 328 327 326
308 308 308 307 309 310 312 311 311 311 311 311 311 310 310 309 317 318 314 312 313 309 309 316 316 317 316 317 318 319 320 320 321 321 322 322 323 324 324 326 327 326 326 327 326
306 307 307 306 305 308 309 312 310 311 311 311 310 310 309 312 328 324 316 313 310 307 309 315 318 317 316 317 318 319 320 319 319 321 322 322 322 322 322 323 323 323 324 323 324
303 305 306 305 304 305 308 310 310 309 310 310 310 310 311 319 322 314 314 313 309 311 314 320 318 317 317 317 318 318 319 320 321 320 321 321 320 321 321 322 322 322 321 321 322
300 301 303 303 304 305 307 309 310 309 308 310 310 310 313 320 319 315 314 312 312 314 317 318 318 318 318 319 319 319 319 320 320 320 320 320 319 319 319 320 320 321 321 321 322
299 300 301 303 304 306 307 308 309 309 307 309 311 312 315 317 314 318 317 314 314 316 316 317 317 317 318 318 319 319 319 319 319 319 319 319 318 318 320 320 320 320 321 321 322
299 300 302 302 305 307 308 307 307 306 306 310 312 313 318 315 314 321 320 320 318 318 317 316 316 318 317 319 319 318 318 318 319 319 318 318 318 319 321 320 320 319 320 321 322
301 300 300 305 307 307 308 307 310 311 311 310 313 315 322 311 311 315 321 317 315 316 318 319 319 319 317 318 319 319 318 319 319 320 320 319 318 319 320 320 320 321 321 322 322
301 301 301 304 307 308 308 312 314 316 313 315 316 321 321 320 314 313 320 317 315 318 319 319 319 320 319 319 320 320 320 319 319 321 320 319 319 319 320 320 321 322 321 322 322
308 304 304 307 307 307 308 316 323 323 319 322 323 320 319 317 314 313 320 318 317 318 319 319 318 319 319 320 320 319 319 319 320 320 320 319 320 320 320 320 321 321 323 324 324
310 307 306 306 307 307 308 317 319 319 320 321 320 321 320 319 315 317 318 318 317 318 319 320 320 319 319 319 319 319 318 319 320 320 320 320 320 320 321 322 322 322 323 324 325
311 308 307 306 307 309 312 317 317 317 321 322 320 320 320 319 319 317 318 318 318 318 320 321 321 321 319 319 319 319 320 320 319 320 321 321 321 322 322 322 322 323 324 323 324
312 308 307 308 312 319 319 318 316 318 323 324 320 320 319 318 318 319 318 319 318 319 320 320 321 320 320 319 319 320 320 319 319 320 320 320 322 324 323 324 324 325 324 323 324
311 309 308 307 312 319 318 317 317 320 337 324 322 319 319 318 319 319 318 318 319 320 319 319 320 320 320 319 319 318 319 319 319 320 321 321 322 322 324 324 325 326 326 326 325
311 308 309 316 314 316 317 317 319 328 335 325 322 321 320 319 319 320 319 319 317 318 319 319 319 319 319 319 318 318 318 319 320 320 323 322 323 323 324 326 326 325 326 324 322
310 309 308 312 321 317 315 318 328 330 325 324 323 321 321 321 321 320 320 319 319 319 319 318 318 319 319 319 319 319 320 321 323 323 324 323 324 327 330 327 325 325 325 323 321
309 312 316 316 317 316 318 324 332 327 324 323 322 322 322 322 321 320 321 321 320 318 319 323 325 320 318 318 320 319 320 324 327 329 327 326 327 327 327 326 325 323 323 322 320
309 318 320 318 317 318 324 331 328 324 323 322 322 323 324 324 322 322 321 321 321 321 321 323 323 321 322 323 321 321 322 322 326 327 330 328 325 326 326 326 325 324 322 319 319
308 317 321 317 318 320 325 327 325 322 322 322 323 324 325 325 325 324 323 323 322 321 321 321 325 323 323 322 323 321 321 323 325 336 332 327 326 327 327 326 323 322 321 319 320
312 324 320 317 318 322 327 326 325 322 321 322 324 323 323 323 324 324 325 323 321 321 321 321 325 325 323 324 325 325 322 322 324 327 333 332 327 326 325 323 323 323 322 320 319
317 325 320 319 322 325 326 325 317 321 321 321 321 322 322 322 322 323 323 322 321 319 320 320 323 325 322 321 322 323 325 324 332 332 330 333 332 326 327 323 324 320 319 318 319
318 320 320 319 325 327 327 323 320 321 321 321 321 321 321 321 322 322 321 320 320 320 322 322 324 327 324 323 322 322 323 323 323 326 325 328 326 322 324 322 322 323 322 321 321
318 321 322 320 321 322 324 322 321 321 318 319 320 320 320 321 320 321 321 320 319 319 316 316 321 324 326 324 325 326 326 324 323 327 326 325 323 321 322 323 322 322 319 318 319
318 321 320 322 322 322 320 320 320 319 319 318 320 319 319 320 319 319 318 318 318 318 318 320 321 319 319 318 319 319 320 320 322 322 323 321 321 321 321 321 320 318 319 319 319
316 316 316 317 318 319 317 319 319 319 317 319 318 318 318 318 317 318 317 317 318 317 319 320 322 320 320 318 318 319 319 318 319 319 318 318 318 317 317 317 319 319 318 317 317
312 313 315 316 316 317 318 319 318 316 316 316 316 316 316 315 315 315 314 314 316 318 318 319 320 320 321 318 321 323 320 319 318 318 317 318 318 319 319 318 318 317 317 316 315
Wind_Speed
23 22 23 21 18 16 15 14 14 14 14 14 14 15 15 16 18 15 16 15 19 20 6 10 16 20 19 16 17 17 13 16 22 21 18 15 10 10 7 11 5 3 7 6 6
25 25 23 22 21 18 16 15 14 14 14 13 13 14 15 15 16 25 27 21 14 20 15 16 16 18 16 17 15 15 11 23 18 13 13 21 16 11 8 15 11 12 11 11 8
24 26 26 26 23 21 18 15 14 13 13 13 13 13 13 10 13 10 20 31 24 19 20 19 18 17 19 17 20 18 17 16 17 17 16 17 10 12 13 16 9 9 12 12 8
24 24 26 26 26 24 22 17 14 12 13 12 12 12 11 6 4 5 10 28 20 16 18 19 19 18 18 21 21 20 21 19 19 19 7 8 9 15 17 14 12 13 13 9 9
23 25 26 27 27 27 25 21 15 13 12 12 10 10 7 8 12 5 11 17 15 15 19 18 16 17 19 19 19 21 18 19 17 18 11 10 13 15 17 15 13 13 11 11 11
21 23 25 27 28 28 29 24 17 13 12 10 8 8 7 11 8 9 11 12 14 18 18 18 13 15 16 18 18 15 19 16 17 13 14 14 16 16 16 16 16 13 12 14 13
23 23 24 26 28 29 32 29 21 14 12 9 7 5 11 16 2 7 9 10 16 16 12 15 16 12 15 12 18 13 14 12 16 17 14 15 18 19 16 17 13 14 13 12 12
25 25 25 26 27 30 32 32 19 11 10 8 6 5 8 6 16 10 11 12 14 12 14 12 14 13 15 12 5 14 15 16 17 18 19 15 16 16 15 21 16 5 10 12 10
26 26 27 26 27 29 32 23 8 7 6 6 6 10 9 5 11 14 13 10 10 12 9 2 7 13 13 14 11 13 14 19 19 20 18 19 18 16 12 4 8 12 13 10 11
27 27 30 31 32 29 26 10 4 2 1 6 13 8 10 10 12 16 15 11 9 8 9 8 8 11 14 12 13 16 19 16 17 13 13 13 15 17 11 14 14 14 13 12 13
31 32 34 38 31 26 20 7 4 5 8 8 4 12 1 2 10 14 15 12 11 8 12 14 11 13 17 18 18 20 20 15 10 14 16 17 14 16 15 14 14 13 13 13 12
34 34 40 35 28 22 13 7 7 4 7 18 19 16 22 2 7 10 16 11 12 14 14 13 14 16 17 16 18 18 18 14 16 16 13 13 15 15 17 18 16 14 13 12 10
36 38 45 34 30 15 16 15 15 14 7 5 14 13 14 8 12 13 15 15 11 15 15 16 16 18 16 16 16 14 14 15 17 16 16 14 17 17 20 20 19 18 13 10 9
36 38 43 35 10 7 14 11 8 7 5 10 9 7 8 7 10 16 18 13 15 15 15 15 17 17 11 13 15 17 16 17 17 14 13 15 15 19 14 17 19 16 12 10 11
34 36 34 15 15 7 6 4 5 2 4 10 10 12 12 11 3 11 16 13 17 15 11 15 17 16 15 19 14 14 14 15 15 14 15 17 12 15 18 19 18 15 17 13 12
38 39 23 4 7 12 12 8 6 5 4 6 8 10 12 14 10 12 7 7 14 12 18 19 18 12 10 12 15 15 16 14 14 13 15 18 18 16 17 18 11 8 16 8 6
41 36 17 7 6 10 8 7 5 5 6 4 9 11 14 9 14 10 15 13 10 5 11 14 18 18 12 12 14 7 8 9 13 14 15 20 18 12 11 11 7 5 7 8 5
42 18 10 8 8 8 9 7 7 8 5 5 4 6 9 11 12 13 11 12 16 16 13 12 14 16 12 15 14 16 14 11 18 14 16 21 15 14 14 11 5 3 6 3 1
37 13 8 2 3 3 7 7 5 8 7 7 11 11 7 5 5 5 10 9 7 13 15 9 16 16 13 16 13 13 14 12 9 12 13 14 22 20 18 11 2 1 3 4 5
22 14 8 3 4 5 6 14 3 6 9 6 8 7 2 3 5 6 3 2 6 9 6 8 11 11 15 17 17 14 10 7 7 5 12 12 14 10 9 13 6 4 2 6 9
7 5 7 5 5 6 8 2 2 9 5 6 9 6 4 8 6 6 3 4 5 5 5 9 8 9 15 12 13 13 12 11 10 12 9 12 10 12 12 6 8 11 12 12 11
8 4 8 6 6 7 10 3 3 5 1 6 4 8 7 7 9 10 10 3 6 8 6 2 4 9 18 18 17 17 17 10 5 6 10 10 15 16 12 13 14 10 12 14 14
5 9 7 6 6 7 4 3 3 4 5 6 2 2 7 5 4 7 6 7 2 5 3 3 1 8 11 15 14 15 16 14 13 13 18 14 13 10 9 15 14 17 20 17 14
5 4 5 6 7 8 11 6 5 7 3 4 6 4 6 8 6 7 2 2 3 6 6 4 10 13 11 12 3 4 12 16 15 9 13 16 22 19 17 19 18 15 17 15 12
4 3 3 5 5 7 8 10 7 5 4 2 4 1 5 2 7 12 10 9 7 5 8 2 10 15 17 20 23 23 20 18 19 21 20 20 24 21 20 19 18 16 12 14 15
5 4 7 10 6 8 6 8 5 4 2 4 3 5 4 5 9 15 15 11 8 8 6 4 4 11 18 21 23 24 23 22 23 22 23 23 23 19 16 13 17 17 17 17 18
14 10 5 7 7 5 3 6 5 3 4 5 5 3 8 9 9 11 11 12 12 10 10 1 4 7 13 17 15 16 22 22 21 19 13 13 15 18 17 17 16 17 18 19 18
Wind_Direction
1 360 356 349 338 330 323 316 310 303 295 294 294 295 296 298 299 276 248 219 226 240 252 227 203 213 220 237 225 241 242 240 241 260 280 290 223 224 267 269 351 312 272 53 65
2 3 360 356 350 336 326 321 315 307 300 296 295 296 298 303 297 270 242 239 244 216 229 220 204 204 208 213 221 227 229 242 252 261 258 275 285 282 216 254 242 252 266 268 256
355 356 358 359 354 349 331 322 315 309 302 298 295 296 301 322 281 255 220 218 231 219 220 226 222 203 216 222 209 215 237 254 243 266 257 276 302 272 282 257 248 273 274 258 256
349 350 351 353 353 351 347 323 315 308 302 300 299 305 309 300 295 78 160 196 213 213 221 243 237 208 218 221 223 217 226 236 261 267 284 274 280 278 280 270 270 275 285 310 303
347 347 346 347 348 348 347 336 310 303 298 298 303 313 312 238 253 121 160 189 194 193 207 229 221 219 219 227 219 231 238 242 230 251 262 275 275 261 259 260 260 257 280 271 260
344 345 344 343 343 343 343 337 316 297 297 294 295 311 261 259 91 137 140 164 182 187 218 228 221 224 234 238 233 233 236 241 262 240 257 234 246 261 260 269 255 249 253 259 249
342 342 342 342 340 339 339 333 318 285 282 281 284 289 265 249 353 160 167 171 179 206 214 226 241 246 243 275 258 254 239 240 240 250 238 252 252 239 244 244 230 229 235 246 262
340 339 339 339 339 335 335 327 308 283 272 261 254 256 265 240 237 207 191 197 206 213 240 221 237 265 243 270 270 246 245 255 250 226 237 232 251 257 268 213 228 251 265 255 259
340 339 339 337 335 332 331 324 324 299 266 214 233 213 264 155 218 221 205 213 192 221 236 246 247 244 226 244 229 232 241 238 248 244 204 213 248 253 236 157 223 213 233 239 239
341 338 335 332 326 324 329 330 319 91 109 226 259 258 256 249 182 212 204 216 187 214 210 220 225 228 238 214 234 231 220 235 255 230 188 231 227 249 232 199 220 226 236 242 251
340 337 333 326 320 316 327 277 213 192 220 231 275 248 95 35 137 203 198 216 201 222 227 206 232 224 228 227 246 265 282 296 282 229 196 208 225 244 250 248 246 221 223 226 227
338 336 336 330 320 312 295 243 303 325 277 231 247 275 288 169 193 213 191 205 215 225 216 246 221 246 243 242 244 245 266 277 284 293 293 273 263 265 263 262 260 260 252 247 247
337 336 339 332 322 291 220 238 267 299 281 243 207 230 241 215 257 199 191 212 219 228 241 233 245 219 236 264 261 255 268 268 264 275 270 254 259 258 254 251 251 254 250 251 260
334 336 339 331 311 276 216 240 231 248 274 149 187 191 207 222 244 255 185 217 239 237 235 250 245 263 215 244 261 262 241 250 259 266 266 264 269 258 265 246 226 225 221 235 236
331 333 336 326 298 288 39 311 325 222 279 190 122 141 158 178 69 235 182 213 241 250 248 262 245 256 260 261 245 263 270 273 268 267 271 263 265 266 260 252 248 229 195 197 216
328 330 330 306 248 271 297 300 254 237 270 158 133 176 166 204 178 175 219 253 246 302 310 290 279 301 292 288 251 253 270 266 262 266 257 255 254 260 260 261 267 342 170 147 102
326 326 305 275 291 322 305 246 241 253 214 104 161 171 187 174 221 182 186 201 229 253 259 281 283 289 256 254 281 226 255 259 252 243 249 245 245 255 327 330 349 228 144 109 89
327 311 283 234 272 290 273 244 253 260 80 70 292 290 235 182 218 191 198 219 202 233 272 275 270 246 255 261 288 260 247 248 275 282 290 309 287 283 309 321 208 209 284 63 73
331 310 237 240 230 218 273 255 301 24 9 2 325 273 215 200 265 225 240 268 242 218 237 277 272 279 270 290 259 265 263 297 326 304 280 267 283 286 284 341 330 206 245 287 242
324 294 247 195 201 247 256 261 314 41 360 308 285 316 283 317 304 286 221 301 303 275 241 273 300 305 305 294 290 272 276 270 261 282 275 267 278 276 357 315 16 303 240 257 255
290 244 125 188 204 241 249 204 300 88 353 332 337 316 304 320 301 299 233 327 312 267 279 273 249 274 293 277 248 261 242 251 255 249 257 278 270 304 359 299 311 294 300 305 306
298 272 121 179 235 237 249 72 331 295 10 262 334 320 316 323 302 285 285 220 314 321 311 292 276 261 270 282 270 242 271 257 254 255 266 270 270 282 301 336 344 305 297 284 269
284 290 149 213 254 280 303 284 172 285 335 328 279 331 318 292 290 283 280 16 35 285 295 322 281 276 273 244 242 257 241 258 269 251 264 270 275 292 207 265 272 279 271 267 277
281 279 175 203 267 297 315 299 254 122 285 321 304 327 315 323 294 281 291 329 352 344 85 341 264 261 269 298 189 269 304 304 287 262 269 260 282 289 294 298 294 296 302 306 316
247 7 22 295 44 337 310 308 288 269 123 195 247 65 41 276 296 267 275 325 309 328 296 326 268 271 279 287 288 283 270 248 253 262 264 277 276 285 290 290 284 289 356 337 324
306 350 355 296 322 296 255 271 288 72 334 127 278 37 347 290 307 309 306 278 271 293 295 152 249 261 275 273 272 272 273 271 266 268 272 278 281 279 296 331 351 345 348 334 323
346 299 268 298 278 271 357 27 40 4 263 12 16 315 297 310 314 290 285 287 272 275 284 258 285 296 271 280 294 264 256 261 264 265 291 303 338 340 347 360 351 329 324 320 338